Terug naar catalogus

FREGAT DEB

LostUNKNOWN
NORAD 45896·DEBRIS·🇷🇺 Russia

Gelanceerd Jul 18, 2011 vanaf Baikonur Cosmodrome

Loading…

Volgende Passages (komende 24 uur)

TLE

VerouderdSource: Space-Track

Epoch: Aug 31, 2020, 03:42 UTC

1 45896U 11037DR  20244.15451044 -.00005326  00000-0 -55359-1 0  9996
2 45896  51.7176 241.0462 1909040 115.3700 265.6568  9.82193209  5174

Volg FREGAT DEB in realtime met AllMySat

Download on the App Store